Hourly Data Report for June 16, 2021

WINNIPEG THE FORKS
MANITOBA
Current Station Operator: ECCC - MSC

49°53'18.008" N
97°07'46.007" W
230.00 m
5023262
71579
XWN

Download Data

Hourly Data (June 2021)
Hourly Data Report for June 16, 2021
TIME
LST
Temp Definition
°C
Dew Point Definition
°C
Rel Hum Definition
%
Precip. Amount Definition
mm

Wind Dir Definition
10's deg

Wind Spd Definition
km/h
Visibility Definition
km
Stn Press Definition
kPa
Hmdx Definition


Wind Chill Definition


Weather Definition


00:00 20.5 11.1 55 0.0 10 2   98.96     LegendNANA
01:00 19.3 11.3 60 0.0 9 3   98.95     LegendNANA
02:00 18.5 11.4 64 0.0 7 3   98.87     LegendNANA
03:00 18.1 11.4 65 0.0 10 4   98.81     LegendNANA
04:00 17.5 11.4 68 0.0 30 3   98.74     LegendNANA
05:00 17.4 11.6 68 0.0 34 3   98.71     LegendNANA
06:00 18.6 12.2 66 0.0 30 2   98.70     LegendNANA
07:00 21.1 13.0 60 0.0 21 4   98.63     LegendNANA
08:00 23.1 12.6 52 0.0 19 7   98.52 26   LegendNANA
09:00 24.2 13.0 50 0.0 20 9   98.51 27   LegendNANA
10:00 25.7 13.2 46 0.0 21 4   98.43 29   LegendNANA
11:00 25.8 12.8 45 0.0 6 6   97.98 28   LegendNANA
12:00 26.3 13.8 46 0.0 19 5   98.26 30   LegendNANA
13:00 27.2 13.9 44 0.0 19 8   98.22 31   LegendNANA
14:00 28.3 13.0 39 0.0 19 12   98.17 31   LegendNANA
15:00 27.3 15.0 47 0.0 20 9   98.15 31   LegendNANA
16:00 29.9 15.9 43 0.0 20 6   98.01 34   LegendNANA
17:00 31.4 15.8 39 0.0 20 9   97.94 36   LegendNANA
18:00 32.0 13.1 32 0.0 24 8   97.90 35   LegendNANA
19:00 30.0 6.3 23 0.0 27 9   97.99 30   LegendNANA
20:00 27.1 9.5 33 0.0 28 9   98.05 28   LegendNANA
21:00 25.2 9.6 37 0.0 27 6   98.14 26   LegendNANA
22:00 23.3 9.8 42 0.0 29 3   98.20     LegendNANA
23:00 22.3 10.1 46 0.0 27 6   98.23     LegendNANA

Notes on Data Quality.

Legend

  • E = Estimated
  • M = Missing
  • NA = Not Available*
  • [empty] = Indicates an unobserved value
Date modified: